Temperature
10 12 12 11 11 11 11 11 11 11 9 9 9 9 8 7 6 6 6 5 5 4 4 4 5 5 6 6 6 6 6 6 6 6 6 6 6 7 7 7 7 7 7 7
12 11 10 9 9 10 10 11 11 10 8 8 8 8 8 6 6 5 5 5 4 4 4 4 4 5 5 5 6 6 6 6 5 6 6 6 6 6 6 6 6 6 6 7
11 9 8 9 9 10 10 10 10 9 8 8 8 9 8 7 5 5 4 4 3 3 3 3 3 4 4 4 5 5 5 5 5 5 5 5 5 5 5 5 5 6 6 6
9 8 8 9 9 9 10 8 8 8 9 10 8 10 9 7 6 5 4 4 3 3 2 2 3 3 3 3 4 4 4 4 4 4 4 4 4 4 5 5 5 5 5 5
8 7 8 8 8 8 8 7 7 8 8 8 8 9 10 7 6 5 4 3 3 2 2 2 2 2 2 3 3 3 3 3 3 3 3 3 3 3 4 4 4 5 5 5
7 6 6 7 7 6 7 7 7 7 8 8 8 8 10 7 6 5 4 3 2 2 2 2 2 2 2 2 2 2 2 3 3 3 3 3 3 3 3 3 3 4 4 4
7 7 6 6 7 7 7 8 9 9 9 9 7 7 8 6 4 4 3 2 2 1 1 1 1 1 1 2 2 2 2 2 2 2 2 2 2 2 2 2 3 3 3 4
8 7 6 6 6 7 7 8 8 8 9 9 7 7 7 4 3 2 2 2 1 1 1 1 1 0 1 1 1 1 1 1 1 1 1 1 1 1 1 2 2 2 2 3
8 7 5 5 5 6 6 7 6 7 6 6 8 6 5 4 3 2 2 1 1 1 0 0 -0 -0 -0 0 0 0 1 1 1 1 1 1 1 1 1 1 1 2 2 2
6 6 5 4 5 5 5 6 6 6 6 7 8 7 7 4 3 3 2 1 1 0 -0 -0 -1 -1 -1 -1 -1 -0 -0 -0 -0 -0 -0 0 0 0 0 1 1 1 1 1
5 5 5 5 5 5 5 5 5 6 5 6 7 7 5 4 3 2 2 1 0 -0 -1 -1 -1 -1 -1 -1 -1 -1 -1 -1 -1 -1 -1 -1 -1 -0 -0 -0 0 0 0 1
4 5 5 5 4 3 4 4 5 5 4 4 5 6 4 3 2 1 1 0 -1 -1 -2 -2 -2 -2 -2 -2 -2 -2 -2 -2 -1 -2 -1 -1 -1 -1 -1 -1 -0 -0 -0 0
3 4 4 5 4 3 3 3 3 3 3 4 4 5 3 2 1 1 -0 -1 -1 -2 -2 -2 -2 -2 -2 -2 -2 -2 -2 -2 -2 -2 -2 -2 -2 -2 -2 -2 -1 -1 -1 -0
3 3 4 5 5 4 3 2 2 2 3 3 4 4 3 2 1 0 -1 -1 -2 -2 -2 -3 -3 -3 -3 -3 -3 -3 -3 -3 -3 -3 -3 -3 -3 -2 -2 -2 -2 -2 -1 -1
3 3 2 2 2 2 2 2 2 1 2 3 3 3 3 2 1 -1 -2 -2 -3 -3 -3 -3 -4 -4 -4 -3 -3 -3 -3 -3 -3 -3 -3 -3 -3 -3 -3 -3 -2 -2 -2 -2
1 2 1 1 1 1 1 1 1 1 1 1 1 1 2 0 -1 -2 -2 -3 -3 -3 -4 -4 -4 -4 -4 -4 -4 -4 -4 -4 -4 -4 -4 -4 -4 -4 -3 -3 -3 -3 -2 -2
1 0 1 1 0 0 1 1 1 1 0 1 1 1 -0 -1 -1 -2 -3 -3 -4 -4 -5 -5 -5 -5 -5 -5 -5 -5 -5 -5 -5 -5 -5 -4 -4 -4 -4 -4 -3 -3 -3 -3
-0 -0 0 0 0 -0 2 -0 0 0 -0 -1 -1 -1 -1 -2 -3 -3 -3 -4 -4 -5 -5 -5 -5 -6 -6 -6 -5 -5 -5 -5 -5 -5 -5 -5 -5 -5 -4 -4 -4 -4 -3 -3
-1 -0 -0 -0 0 1 1 -0 -1 -1 -1 -1 -1 -2 -2 -3 -3 -3 -3 -4 -5 -5 -6 -6 -6 -6 -6 -6 -6 -6 -6 -6 -6 -6 -6 -6 -6 -5 -5 -5 -5 -4 -4 -4
-2 -1 -1 -1 -0 1 1 -1 -2 -1 -1 -2 -3 -2 -3 -4 -2 -2 -4 -5 -5 -6 -6 -6 -6 -6 -6 -6 -6 -6 -6 -6 -6 -6 -6 -6 -6 -6 -6 -5 -5 -5 -5 -4
-2 -2 -2 -1 -1 1 -0 -2 -2 -1 -0 -2 -3 -3 -4 -4 -4 -4 -5 -6 -6 -6 -6 -6 -6 -6 -6 -6 -7 -7 -7 -7 -7 -7 -7 -7 -6 -6 -6 -6 -6 -5 -5 -5
-1 -1 -2 -2 -2 -0 -2 -3 -2 -1 -3 -3 -4 -4 -5 -5 -5 -6 -6 -6 -7 -7 -7 -7 -7 -7 -7 -7 -7 -7 -7 -7 -7 -7 -7 -7 -7 -7 -6 -6 -6 -6 -6 -5
-2 -1 -1 -1 -0 -2 -3 -3 -4 -4 -4 -5 -5 -5 -6 -6 -6 -7 -7 -7 -7 -7 -7 -7 -7 -7 -7 -7 -7 -7 -7 -8 -8 -7 -7 -7 -7 -7 -7 -7 -7 -6 -6 -6
-3 -4 -3 -3 -2 -3 -4 -4 -4 -5 -5 -5 -6 -6 -7 -7 -7 -7 -8 -8 -8 -8 -8 -8 -8 -8 -8 -8 -8 -8 -8 -8 -8 -8 -8 -8 -7 -7 -7 -7 -7 -7 -7 -7
-2 -4 -4 -3 -3 -4 -5 -5 -5 -6 -6 -6 -7 -7 -7 -8 -8 -8 -8 -8 -8 -8 -8 -8 -8 -8 -8 -8 -8 -8 -8 -8 -8 -8 -8 -8 -8 -8 -8 -7 -7 -7 -7 -7
-4 -4 -4 -3 -4 -4 -5 -5 -6 -6 -7 -7 -7 -7 -8 -8 -8 -8 -8 -8 -8 -8 -9 -9 -9 -9 -9 -9 -9 -9 -9 -9 -9 -9 -9 -9 -8 -8 -8 -8 -8 -7 -7 -7
Wind_Speed
3 2 1 0 1 1 1 3 5 4 3 3 4 5 4 2 2 3 3 5 6 6 7 7 7 7 7 7 6 6 4 4 3 2 2 2 2 2 2 3 3 3 2 2
2 1 1 1 1 1 2 4 5 3 2 3 4 5 3 1 1 2 4 5 6 6 7 8 8 8 8 7 7 6 5 4 3 2 2 2 3 2 3 3 3 3 2 2
2 2 1 1 1 1 3 4 5 6 6 3 4 4 4 2 2 3 4 5 6 6 7 8 8 8 8 8 7 6 6 5 4 4 3 3 2 2 2 3 3 3 3 3
2 1 0 1 1 3 4 2 5 6 6 4 3 5 4 3 2 2 3 5 6 6 7 7 8 8 8 8 7 6 6 5 5 4 3 3 3 4 4 4 4 4 4 3
1 1 1 1 2 2 2 3 4 6 6 5 5 6 3 4 3 0 2 4 5 6 7 7 8 8 8 8 7 6 6 5 5 4 4 3 4 4 4 4 5 4 3 3
1 1 1 1 1 1 1 2 2 2 3 5 4 6 5 3 1 0 2 4 5 6 7 7 8 8 8 8 7 6 6 6 5 5 5 5 5 5 5 5 5 4 3 3
0 0 1 1 1 0 1 3 3 3 4 4 2 6 4 2 1 0 1 4 5 6 7 8 9 9 9 9 8 8 7 7 7 6 6 6 6 5 5 5 5 5 4 4
2 2 1 1 1 1 1 2 3 4 5 5 4 6 1 2 2 1 1 3 5 7 8 8 9 9 9 9 9 8 8 8 7 7 6 6 6 5 5 6 5 6 5 5
2 2 1 2 2 1 1 2 2 3 5 7 6 4 3 3 2 1 2 4 7 8 9 9 9 9 9 9 9 8 8 8 8 8 7 6 6 6 6 6 6 5 5 5
1 2 1 2 1 1 1 2 2 3 5 7 7 7 5 6 3 2 4 7 9 9 10 10 10 10 9 9 9 9 8 8 8 8 7 6 6 7 7 6 7 6 7 6
1 2 2 2 3 3 2 3 4 4 4 6 7 5 1 3 2 3 6 8 9 10 10 10 10 9 9 9 9 9 9 9 8 8 7 7 7 7 7 6 7 7 6 6
1 1 4 4 2 3 4 4 4 5 6 6 7 7 1 2 2 4 7 9 9 10 10 10 10 10 9 10 10 10 9 9 9 8 8 7 7 7 7 7 7 7 7 7
2 3 3 3 3 3 3 3 4 4 4 7 9 7 1 2 6 7 9 10 10 10 11 10 10 10 10 10 10 10 10 10 9 8 8 8 8 8 8 8 7 7 7 7
2 5 7 8 5 3 6 7 7 7 7 10 13 13 9 9 9 9 9 10 10 10 11 11 11 10 10 10 10 10 10 9 9 8 8 8 8 8 8 8 8 7 7 7
2 5 7 9 8 8 10 11 11 12 13 13 13 14 13 10 8 8 8 9 10 11 11 12 12 12 11 11 11 10 10 9 9 9 8 8 8 8 8 8 8 7 7 7
2 4 4 6 6 8 12 13 13 14 13 14 15 15 9 6 6 7 9 9 10 11 12 13 12 12 12 12 11 11 11 10 9 9 9 8 8 8 8 8 8 7 7 7
4 4 4 5 5 7 10 9 11 8 8 9 11 8 5 6 7 8 9 9 10 12 12 12 12 12 12 12 11 11 11 10 9 9 9 8 8 8 8 8 8 7 7 7
5 4 3 4 3 8 3 1 4 7 8 7 7 6 6 7 9 9 8 8 10 11 12 12 12 12 12 12 10 10 10 9 9 9 9 8 8 8 8 8 8 8 7 7
5 5 4 3 5 9 5 3 3 4 6 5 6 6 7 7 8 7 5 7 10 11 12 12 12 12 11 11 10 10 9 9 9 9 9 9 8 8 8 8 8 8 7 7
3 4 4 4 6 7 3 1 0 2 5 2 4 5 6 6 8 8 7 9 11 11 10 11 11 11 10 10 10 9 9 9 9 9 10 9 9 9 9 8 8 7 7 7
4 5 7 8 8 8 2 1 2 4 3 0 4 5 6 7 9 9 10 10 10 11 11 11 11 10 9 10 9 9 10 10 10 10 10 10 9 9 9 8 7 7 6 6
7 6 7 6 7 7 3 4 4 4 3 3 5 6 7 9 10 10 10 11 11 11 11 11 10 10 9 9 8 9 10 10 10 9 9 9 9 8 7 8 7 7 6 6
7 6 4 7 6 3 3 3 3 3 4 5 6 7 8 9 10 11 11 11 11 11 11 10 10 10 9 9 8 9 10 10 10 10 10 9 9 8 7 7 7 6 5 5
5 3 4 6 7 6 5 5 5 5 5 6 6 7 7 9 10 11 10 10 10 11 10 9 9 10 10 10 9 9 10 10 10 10 10 9 8 8 7 6 6 5 5 4
4 5 5 8 7 6 6 6 6 5 5 6 6 7 8 9 10 10 10 10 10 10 9 9 9 10 11 10 10 10 9 9 9 10 9 8 7 7 7 6 6 6 5 5
5 6 6 7 5 5 5 5 5 5 6 6 7 8 8 8 9 10 10 9 9 9 9 9 9 10 11 11 11 10 9 9 9 8 8 7 6 6 6 6 6 6 6 7
Wind_Direction
37 101 113 6 281 282 236 249 276 291 343 319 277 282 302 333 9 20 22 25 24 19 15 16 16 16 16 16 13 12 6 6 7 352 336 326 323 315 322 318 307 298 289 277
120 105 23 22 125 181 231 263 283 291 326 301 281 278 275 311 38 23 26 26 18 13 16 16 16 17 15 12 9 6 2 356 354 338 323 310 310 299 302 307 301 289 286 284
136 82 59 126 103 257 267 271 285 294 312 246 269 247 195 142 107 62 43 29 22 17 11 10 11 10 9 6 1 357 353 348 343 338 339 338 334 326 318 305 302 299 286 275
88 30 102 124 318 287 272 288 280 280 282 266 267 274 195 179 163 58 32 23 18 15 10 8 7 6 2 356 351 351 348 343 341 337 330 323 307 299 297 295 292 298 287 276
98 40 25 290 319 294 298 316 279 268 260 265 236 253 222 187 214 26 26 19 13 9 5 3 1 358 355 351 347 344 342 339 334 332 321 308 304 303 305 300 292 294 292 282
76 36 354 343 348 302 294 281 258 219 232 248 228 239 249 195 203 21 21 9 3 3 2 1 358 355 354 351 348 345 340 336 331 321 318 307 301 306 308 302 297 294 291 283
67 121 40 332 276 112 311 292 280 257 238 250 186 246 257 116 93 85 356 358 1 0 356 354 353 350 349 348 346 342 338 334 330 322 315 308 300 294 289 291 287 289 286 282
229 230 68 10 320 299 287 274 270 277 277 285 255 247 223 107 98 87 25 7 2 355 349 346 345 343 342 341 339 338 334 329 326 319 312 306 303 294 288 287 287 281 279 279
229 232 51 357 340 274 213 212 307 280 282 274 256 254 241 174 152 64 8 355 347 343 342 340 339 337 335 334 333 331 328 324 322 318 312 307 305 298 292 289 286 285 284 285
229 254 271 319 219 70 303 176 199 231 266 270 266 259 244 190 218 294 332 339 335 335 334 335 334 333 331 329 328 328 325 321 320 318 314 309 306 302 297 291 290 290 290 287
240 233 251 246 231 242 207 210 228 239 257 268 278 270 37 197 226 303 321 327 330 329 327 328 329 330 329 329 328 327 326 323 321 321 316 314 313 308 304 298 293 293 291 287
155 232 256 262 294 297 248 234 215 243 248 249 270 276 128 207 280 309 317 324 326 325 323 324 326 329 329 329 329 328 326 323 320 318 314 312 310 308 306 301 297 295 291 289
175 201 260 253 206 195 227 225 233 255 256 246 253 264 137 266 303 315 318 319 321 322 322 323 326 327 326 325 324 323 323 320 318 315 312 309 308 306 304 302 298 295 291 288
220 225 238 261 282 252 255 248 237 232 243 254 253 267 275 287 302 310 314 315 318 320 322 322 322 323 323 321 319 320 319 318 316 313 308 306 306 303 299 300 298 295 290 285
220 243 249 265 274 267 262 257 244 239 246 257 268 273 283 293 298 303 308 314 317 320 323 322 320 320 321 320 318 318 316 316 314 310 306 306 307 306 302 301 298 295 290 285
208 237 256 268 266 269 268 259 248 246 250 255 268 278 293 308 302 302 309 313 313 316 319 320 319 319 320 320 318 315 313 314 312 308 305 306 306 306 304 301 299 293 289 286
195 198 232 267 293 291 265 243 230 236 242 249 261 278 307 306 302 305 309 308 309 314 315 316 316 316 315 316 315 313 313 313 309 307 306 306 306 304 302 300 298 291 287 285
200 203 229 267 279 251 275 89 235 246 257 247 260 281 291 298 305 297 295 301 309 313 313 313 313 313 312 312 314 314 312 311 310 309 308 307 307 303 302 300 298 293 288 284
215 203 215 233 258 272 272 233 222 242 270 242 254 276 297 315 306 291 297 307 308 309 309 309 309 308 308 310 312 312 312 312 310 308 305 304 302 300 299 297 297 294 288 285
180 209 223 226 249 261 272 129 135 253 264 219 240 273 293 306 298 304 326 315 308 307 308 310 309 307 306 309 312 310 310 310 309 308 306 303 300 297 294 293 293 292 286 281
183 205 222 234 248 266 277 144 173 242 296 278 256 272 280 280 286 304 309 306 306 306 309 310 308 307 308 311 310 308 308 308 310 309 306 304 301 297 294 293 291 291 285 282
200 203 211 215 232 255 145 162 216 280 334 296 284 284 282 284 292 299 300 303 306 307 309 310 308 308 310 311 310 306 306 310 310 307 305 304 303 301 296 294 293 292 284 281
217 217 218 215 239 312 187 229 274 301 293 296 291 290 287 289 293 298 299 301 304 305 306 308 308 309 311 313 309 303 305 311 310 307 305 305 305 301 296 293 292 291 283 278
223 219 229 250 262 272 264 267 284 286 284 291 291 290 289 290 294 296 298 300 303 304 306 309 310 310 311 314 310 302 304 307 305 303 303 303 302 301 299 294 289 286 278 275
228 195 227 253 271 284 267 266 275 279 284 291 293 291 291 292 293 295 296 298 300 301 304 307 307 306 308 311 310 309 308 307 304 303 303 304 304 302 301 298 294 288 277 273
211 208 224 251 258 257 275 293 290 279 282 288 292 294 296 293 293 297 296 296 298 301 306 307 307 307 309 311 310 311 311 307 303 303 303 304 304 303 302 302 302 296 287 290
Height
1535 1535 1535 1537 1538 1537 1536 1536 1535 1538 1543 1543 1540 1540 1541 1542 1541 1540 1539 1538 1537 1535 1534 1532 1530 1528 1527 1526 1525 1524 1523 1523 1522 1522 1521 1520 1520 1520 1520 1521 1521 1521 1521 1521
1535 1537 1541 1542 1541 1540 1538 1536 1535 1539 1543 1542 1540 1539 1540 1541 1540 1540 1539 1538 1537 1535 1533 1531 1529 1527 1526 1524 1523 1522 1521 1521 1520 1519 1519 1518 1518 1517 1517 1517 1518 1518 1518 1518
1534 1542 1543 1542 1541 1539 1538 1537 1537 1539 1541 1541 1539 1533 1536 1539 1540 1540 1539 1538 1537 1535 1533 1530 1528 1527 1525 1524 1522 1521 1520 1519 1518 1517 1516 1516 1515 1515 1515 1514 1514 1515 1515 1515
1540 1544 1543 1541 1541 1540 1537 1541 1541 1541 1538 1532 1536 1525 1530 1536 1538 1539 1539 1538 1537 1535 1533 1530 1528 1526 1525 1523 1522 1520 1518 1517 1516 1515 1514 1513 1512 1512 1511 1511 1511 1511 1511 1511
1542 1544 1543 1542 1543 1543 1540 1543 1542 1540 1536 1534 1533 1530 1522 1533 1534 1537 1538 1538 1537 1535 1533 1530 1528 1526 1524 1523 1521 1519 1517 1515 1514 1512 1511 1510 1510 1509 1508 1508 1507 1507 1507 1508
1545 1547 1546 1545 1545 1545 1544 1542 1540 1539 1535 1531 1529 1529 1517 1527 1532 1536 1538 1538 1537 1535 1533 1531 1528 1526 1524 1522 1520 1518 1516 1513 1511 1510 1508 1507 1507 1506 1505 1504 1504 1503 1503 1503
1543 1546 1547 1547 1544 1544 1543 1537 1531 1529 1526 1521 1532 1530 1523 1531 1535 1537 1538 1537 1536 1534 1532 1530 1527 1525 1522 1520 1518 1516 1514 1511 1509 1507 1505 1504 1503 1502 1501 1501 1500 1499 1499 1499
1539 1541 1546 1547 1545 1543 1542 1540 1535 1531 1522 1519 1529 1525 1527 1535 1537 1537 1538 1537 1536 1534 1532 1529 1526 1524 1521 1518 1516 1514 1511 1509 1506 1504 1502 1501 1500 1498 1497 1497 1496 1496 1495 1495
1539 1541 1548 1548 1548 1546 1542 1541 1543 1540 1538 1533 1520 1525 1532 1535 1536 1537 1537 1536 1534 1533 1530 1528 1525 1522 1519 1516 1514 1511 1508 1505 1503 1501 1499 1497 1496 1494 1493 1493 1492 1491 1491 1491
1545 1545 1547 1549 1548 1548 1546 1544 1543 1541 1536 1525 1516 1519 1518 1530 1532 1535 1535 1534 1533 1531 1529 1526 1523 1520 1517 1514 1511 1508 1505 1502 1500 1497 1495 1493 1491 1490 1489 1488 1487 1487 1487 1486
1547 1545 1546 1547 1545 1542 1546 1545 1542 1539 1538 1530 1519 1516 1524 1527 1531 1532 1533 1532 1531 1529 1527 1523 1520 1517 1514 1511 1508 1505 1502 1499 1496 1494 1491 1489 1487 1486 1484 1483 1483 1482 1482 1482
1548 1546 1544 1544 1547 1548 1545 1543 1542 1540 1538 1537 1529 1523 1528 1529 1531 1532 1531 1530 1529 1527 1524 1521 1518 1514 1511 1508 1505 1502 1499 1496 1493 1490 1488 1485 1483 1482 1480 1479 1478 1477 1477 1477
1549 1547 1543 1538 1546 1548 1546 1545 1545 1545 1541 1535 1530 1523 1528 1530 1530 1530 1530 1528 1526 1524 1521 1518 1515 1512 1508 1505 1502 1499 1495 1492 1489 1486 1484 1481 1479 1477 1476 1474 1473 1473 1472 1471
1547 1545 1541 1533 1530 1538 1541 1542 1543 1543 1538 1530 1525 1521 1525 1527 1528 1529 1528 1526 1524 1522 1519 1516 1512 1509 1505 1502 1499 1495 1492 1489 1486 1483 1480 1477 1475 1473 1472 1470 1469 1468 1467 1466
1546 1543 1542 1540 1540 1540 1538 1538 1539 1538 1533 1529 1520 1522 1522 1525 1528 1527 1526 1524 1522 1519 1516 1513 1509 1505 1502 1498 1495 1491 1488 1485 1482 1479 1476 1473 1471 1469 1467 1466 1465 1463 1463 1462
1546 1544 1544 1543 1541 1540 1538 1534 1533 1533 1531 1528 1526 1524 1524 1526 1526 1525 1523 1521 1519 1516 1513 1509 1506 1502 1498 1494 1491 1487 1484 1481 1477 1474 1472 1469 1467 1465 1463 1461 1460 1459 1458 1457
1544 1544 1543 1536 1539 1537 1530 1525 1527 1527 1526 1526 1523 1522 1524 1524 1524 1523 1521 1519 1516 1513 1510 1506 1503 1499 1495 1491 1487 1483 1480 1476 1473 1470 1468 1465 1463 1460 1459 1457 1455 1454 1453 1452
1543 1543 1542 1538 1539 1535 1521 1526 1525 1524 1523 1524 1523 1523 1524 1523 1522 1520 1518 1516 1513 1510 1507 1503 1499 1495 1491 1487 1484 1480 1476 1473 1469 1466 1464 1461 1459 1456 1454 1452 1451 1449 1448 1447
1542 1542 1540 1538 1531 1521 1522 1524 1525 1524 1521 1522 1522 1522 1522 1521 1519 1516 1515 1513 1510 1507 1503 1499 1495 1491 1487 1484 1480 1476 1472 1469 1466 1463 1460 1458 1455 1452 1450 1448 1447 1445 1444 1443
1543 1542 1540 1538 1532 1521 1516 1523 1524 1525 1518 1519 1520 1520 1520 1520 1516 1511 1511 1509 1506 1503 1499 1495 1491 1488 1484 1480 1476 1473 1469 1465 1462 1459 1457 1454 1451 1449 1446 1444 1443 1441 1440 1439
1540 1540 1538 1534 1529 1516 1520 1523 1524 1522 1515 1518 1518 1518 1518 1517 1515 1512 1508 1505 1503 1499 1495 1492 1488 1484 1480 1477 1473 1469 1465 1462 1459 1456 1453 1450 1448 1445 1443 1441 1439 1437 1436 1434
1530 1530 1533 1531 1528 1520 1520 1521 1521 1517 1517 1516 1516 1516 1515 1513 1510 1508 1505 1501 1498 1495 1491 1487 1483 1480 1476 1473 1469 1465 1462 1458 1455 1452 1449 1446 1444 1441 1439 1437 1435 1434 1432 1431
1526 1524 1522 1522 1519 1517 1518 1517 1517 1517 1516 1515 1514 1512 1511 1509 1506 1503 1500 1497 1493 1490 1487 1483 1479 1475 1472 1469 1465 1461 1458 1455 1451 1448 1445 1442 1440 1437 1435 1433 1431 1430 1429 1427
1524 1525 1523 1521 1516 1516 1516 1515 1515 1514 1513 1512 1511 1509 1507 1504 1502 1499 1495 1492 1489 1486 1482 1479 1475 1471 1468 1465 1461 1458 1454 1451 1448 1444 1441 1438 1436 1433 1431 1429 1428 1426 1425 1424
1518 1521 1519 1517 1515 1514 1513 1512 1512 1511 1510 1508 1507 1505 1503 1500 1497 1494 1491 1487 1484 1481 1478 1475 1471 1467 1464 1460 1457 1454 1450 1447 1444 1441 1438 1435 1432 1430 1427 1426 1424 1423 1422 1421
1515 1516 1515 1510 1511 1512 1510 1509 1509 1507 1506 1505 1503 1500 1498 1496 1493 1490 1486 1483 1480 1477 1474 1470 1467 1463 1460 1456 1453 1450 1447 1443 1440 1437 1434 1431 1429 1426 1424 1422 1420 1419 1419 1418